Погода Ростов Великий

Погода Ростов Великий : погода сейчас, прогноз погоды и архив. Всё, что Вы хотите узнать о погоде Ростов Великий!

Хотите узнать прогноз погоды Ростов Великий? Тогда Вам сюда: Погода Ростов Великий

Поиск расширенной информации на нашем сайте:

Другие новости

Новости СМИ2

Главная страница сайта

Новости сайта

03.07.2017

Напоминаем, что на нашем специализированном сайте Метеоцентр.Азия вы можете получить высокодетализированные автоматические прогнозы погоды по пунктам России, СНГ и мира в авиационном формате (включающие направление и скорость ветра, видимость, явления погоды, количество и форму облачности, нижнюю и верхнюю границу облачности).


Погода Ростов Великий - сегодня

Время (UTC), дата Ветер
(°,м/с) 
Видим.   Явления Облачность Т
(°С)
Тd
(°С)
f(%) Тe
(°С)
Pmin
(гПа)
dP
(гПа)
Po
(мм)
O2
(г/м3)
Тmin Tmax R s Состояние
почвы
21 20.02.18 310 (СЗ) 50000 м    ясно 
-14.9 -16.5 88 -17  1019  0.1  754  323           
00 21.02.18 330 (СЗ) 50000 м    ясно 
-16.6 -18.3 87 -19  1019.6  0.5  755  325           
03 21.02.18 330 (СЗ) 50000 м    ясно 
-16.1 -18 85 -20  1020.3  0.7  755  325  -17.1    0.0  45  равномерный
сухой снег
100% 
06 21.02.18 330 (СЗ) 50000 м    3/0 верхняя 
[Ci fib]
-16.2 -18.2 85 -19  1021  0.7  756  325           
09 21.02.18 320 (СЗ) 50000 м    ясно 
-11.4 -14.8 76 -15  1021.4  0.6  756  319           
12 21.02.18 330 (СЗ) 50000 м    3/0 средняя 
[Ac As]
-10.4   1022.2  757             
18 21.02.18 тихо ()   50000 м    ясно 
-18.7 -20.8 83 -19  1024.2  0.6  758  329           
21 21.02.18 330 (СЗ) 50000 м    ясно 
-17.6 -19.5 85 -18  1025  0.9  758  328           
00 22.02.18 340 (С) 50000 м    ясно 
-17.8 -19.9 84 -20  1025.6  0.6  759  329           
03 22.02.18 350 (С) 50000 м    ясно 
-19.3 -21.5 83 -20  1026.4  0.7  759  331  -20.8      45  равномерный
сухой снег
100% 
06 22.02.18 350 (С) 50000 м    ясно 
-18.6 -20.7 83 -21  1027.2  0.8  760  330           
09 22.02.18 340 (С) 50000 м    ясно 
-14 -16.9 79 -16  1027.7  0.7  761  324           
12 22.02.18 330 (СЗ) 50000 м    ясно 
-9.9 -16.1 60 -12  1027.5  761  319           
15 22.02.18 тихо ()   50000 м    ясно 
-15.9 -19.3 75 -16  1027.5  -0.3  760  327    -9.3       
18 22.02.18 тихо ()   50000 м    ясно 
-18.5 -20.6 83 -19  1028.1  0.4  761  330           
21 22.02.18 тихо ()   50000 м    ясно 
-23.1 -25.6 80 -23  1028.2  0.1  761  337           
00 23.02.18 тихо ()   50000 м    ясно 
-24.9 -27.8 77 -25  1028.4  761  339           
03 23.02.18 160 (Ю) 50000 м    9/0 средняя 
[Ac und]
-23.9 -26.7 78 -24  1028  -0.3  760  338  -25.6      45  равномерный
сухой снег
100% 
06 23.02.18 190 (Ю) 30000 м    6/0 средняя 
[Ac trans]
-20 -22.3 82 -20  1027.7  0.1  760  332           
09 23.02.18 200 (Ю) 50000 м  {снег}  ясно 
-12 -16.9 67 -12  1027  -0.2  760  322           
18 23.02.18 320 (СЗ) 50000 м    ясно 
-15.6 -17.7 84 -16  1026.6  0.2  760  326           
21 23.02.18 360 (С) 30000 м    ясно 
-17.9 -19.9 84 -18  1027.2  0.5  760  329           
00 24.02.18 тихо ()   50000 м    1/0 средняя 
[Ac trans]
-22.6 -25.2 79 -23  1027.9  0.4  760  336           
03 24.02.18 тихо ()   30000 м    3/0 средняя 
[Ac trans]
-25.7 -28.6 77 -26  1028.2  0.1  761  340  -26.1      44  равномерный
сухой снег
100% 
09 24.02.18 320 (СЗ) 20000 м    6/0 средняя 
[Ac trans]
-14.6 -18 75 -15  1028.5  0.1  761  326           
Время (UTC), дата Ветер
(°,м/с) 
Видим.   Явления Облачность Т
(°С)
Тd
(°С)
f(%) Тe
(°С)
Pmin
(гПа)
dP
(гПа)
Po
(мм)
O2
(г/м3)
Тmin Tmax R s Состояние
почвы

Для получения пояснительной информации подведите курсор к названию столбца.

ПОГОДА Ростов Великий - архив

Всё, что Вы хотите узнать о погоде Ростов Великий - удобно и подробно!

Выберите нужную дату (начиная с 1 января 2015* года) и нажмите кнопку "Найти".
Будут отображены архивные сводки погоды по пункту Ростов Великий, начиная с указанной даты.


Отображать данные в формате CSV (для использования в таблицах Excel)


Внимание! Наш архив погоды предназначен исключительно для личного некоммерческого использования в познавательных целях. Если Вам необходимы официальные справки о состоянии погоды (для производственных, юридических, коммерческих и т.п. целей), обращайтесь в органы Росгидромета.

*Примечание: данная дата относится к архиву по метеостанциям СССР (Россия, СНГ, Балтия).
Архив по метеостанциям Зарубежной Европы и Азии (кроме Китая) хранится 10 дней, по другим регионам земного шара (Китай, Африка, Америка, Австралия, Океания) - 1 день.

Ростов Великий - район местоположения метеостанции


Название, широта, долгота, высота метеостанции:
Ростов Великий 57.2°ш. 39.4°д. 101 м над ур. моря [Российская Федерация]

Дополнительная информация

В oтличие oт бoльшинства пoгoдных сайтoв мы публикуем пoдрoбную метеoинфoрмацию в детальнoм прoфессиoнальнoм фoрмате.

Характеристики температуры и влажнoсти вoздуха измеряются на высoте 2 м в тени вдали oт зданий и деревьев.
Скoрoсть ветра измеряется на высoте 10 м (на урoвне рoста челoвека скoрoсть ветра ниже в 1.5-2 раза). Если метеoстанция нахoдится в гoрoде или в лесу, тo скoрoсть ветра занижена на 2-4 м/с пo сравнению с oткрытым местoм. Скoрoсть ветра над акватoриями крупных рек и oзёр, а также на вершинах хoлмoв на 2-5 м/с выше, чем в oбычных услoвиях.
Атмoсфернoе давление в разных тoчках местнoсти мoжет значительнo oтличаться oт давления на метеoстанции, в зависимoсти oт услoвий рельефа (при пoдъёме на 10 м давление пoнижается примернo на 1 мм рт.ст.).